Location: Guayaquil
(2.1667°S, 79.9000°W)
Time: 09:48:32
(UTC-05:00)

ISS - Visible Passes

Search period start: 25 July 2017 00:00
Search period end: 04 August 2017 00:00
Orbit: 400 x 408 km, 51.6° (Epoch: 25 July)

Date Brightness Start Highest point End Pass type
(mag) Time Alt. Az. Time Alt. Az. Time Alt. Az.
25 Jul -3.5 05:54:16 10° NNW 05:57:31 72° NE 06:00:47 10° SE visible
26 Jul -1.3 05:02:33 10° N 05:05:15 24° NE 05:07:58 10° ESE visible
27 Jul -2.7 05:46:27 10° WNW 05:49:12 25° SW 05:51:59 10° S visible
28 Jul -2.0 04:58:50 22° SSE 04:58:50 22° SSE 05:00:10 10° SSE visible
